Location: Baili�vre
(50.0696°N, 4.2409°E)
Time: 10:42:45
(UTC+00:00)

Cosmos 1184 Rocket - Pass Details

Date: 08 August 2020
Orbit: 406 x 423 km, 81.2° (Epoch: 20 September)

Event Time Altitude Azimuth Distance (km) Brightness Sun altitude
Exits shadow 20:21:25 15° 131° (SE) 1,244 4.5 -10.0°
Maximum altitude 20:23:06 22° 92° (E) 998 4.2 -10.2°
Drops below altitude 10° 20:25:43 10° 40° (NE) 1,525 5.6 -10.5°
Sets 20:28:03 0° 24° (NNE) 2,397 6.8 -10.8°
